Regional Weather Roundup
Issued by NWS

Home | Current Version | Previous Version | Graphics & Text | Print | Product List | Glossary On
Versions: 1 2 3 4 5 6 7 8 9 10 11 12 13 14 15 16 17 18 19 20 21 22 23 24 25 26 27 28 29 30 31 32 33 34 35 36 37 38 39 40 41 42 43 44 45 46 47 48 49 50
000
ASUS43 KMKX 290721
RWRWI

WISCONSIN REGIONAL WEATHER ROUNDUP
NATIONAL WEATHER SERVICE MILWAUKEE/SULLIVAN WI
200 AM CDT SAT AUG 29 2015

NOTE: "FAIR" INDICATES FEW OR NO CLOUDS BELOW 12,000 FEET WITH NO
SIGNIFICANT WEATHER AND/OR OBSTRUCTIONS TO VISIBILITY.

WIZ001-002-006>008-014>016-023>028-290800-
NORTHWEST WISCONSIN

CITY           SKY/WX    TMP DP  RH WIND       PRES   REMARKS
SUPERIOR ARPT  PTCLDY    60  58  94 SW5       30.02R
ASHLAND        CLOUDY    63  58  83 SW8       30.04S
HAYWARD        MOCLDY    59  55  87 S3        30.06R
SIREN          CLEAR     58  56  94 CALM      30.05R
CUMBERLAND     CLEAR     54  52  94 CALM      30.05F
RICE LAKE      CLEAR     55  54  94 SE5       30.06F
CHETEK         CLEAR    N/A N/A N/A E3        30.05F
LADYSMITH      CLEAR     54  53  95 SE3       30.08S
EAU CLAIRE     CLEAR     54  52  93 NE5       30.04F
MENOMONIE      CLEAR     54  53  97 CALM      30.04F
NEW RICHMOND   CLEAR     55  54  99 SE5       30.03F
OSCEOLA        CLEAR     56  56 100 CALM      30.06F
$$

WIZ003>005-009-010-017-018-290800-
NORTH CENTRAL WISCONSIN

CITY           SKY/WX    TMP DP  RH WIND       PRES   REMARKS
MANITOWISH WTR PTCLDY    57  55  95 S3        30.06F
ARBOR VITAE    PTCLDY    57  54  89 S5        30.06F
WOODRUFF       PTCLDY    57  54  89 S5        30.06F
RHINELANDER    CLEAR     56  53  90 S3        30.09F
EAGLE RIVER    PTCLDY    58  51  78 CALM      30.07F
LAND O LAKES   PTCLDY    59  50  72 SW5       30.07F
PHILLIPS       CLEAR     55  54  97 S3        30.05F
TOMAHAWK       CLEAR     53  52  95 CALM      30.09F FOG
MEDFORD        CLEAR     52  52  99 E3        30.07F
MERRILL        CLOUDY    57  56  94 SE3       30.09F
$$

WIZ029-030-035-036-043>047-290800-
CENTRAL WISCONSIN

CITY           SKY/WX    TMP DP  RH WIND       PRES   REMARKS
WAUSAU         CLOUDY    58  55  90 E3        30.09R
MOSINEE        CLOUDY    55  54  94 E3        30.11R
MARSHFIELD     CLOUDY    58  53  84 E6        30.08S
STEVENS POINT  CLOUDY    55  54  97 CALM      30.09R
WAUPACA        RAIN      59  58  97 SE3       30.09S
WAUTOMA        LGT RAIN  57  57 100 CALM      30.08S FOG
WISC RAPIDS    LGT RAIN  58  55  90 E5        30.08S FOG
CAMP DOUGLAS   CLOUDY    57  57 100 E9        30.04S
$$

WIZ011>013-019>022-031-037>040-048>050-290800-
NORTHEAST WISCONSIN

CITY           SKY/WX    TMP DP  RH WIND       PRES   REMARKS
ANTIGO         CLOUDY    56  55  94 CALM      30.11S
SHAWANO        CLOUDY    60  56  88 CALM      30.11R
OCONTO         CLOUDY    59  59 100 CALM      30.10F
STURGEON BAY   CLOUDY    57  54  88 SW7       30.14S
GREEN BAY      CLOUDY    58  56  93 S3        30.11S
MANITOWOC      LGT RAIN  57  55  94 MISG      30.11F
APPLETON       CLOUDY    55  55 100 CALM      30.08S
CLINTONVILLE   HVY RAIN  55  54  94 SE3       30.09S
OSHKOSH        LGT RAIN  58  55  90 E7        30.08F
$$

WIZ032>034-041-042-053>061-290800-
SOUTHWEST WISCONSIN

CITY           SKY/WX    TMP DP  RH WIND       PRES   REMARKS
LA CROSSE      CLOUDY    61  58  90 NE5       30.01S
SPARTA         CLOUDY    58  56  94 E7        30.04S
VIROQUA        CLOUDY    58  58 100 E10       30.01S
BOSCOBEL       LGT RAIN  63  62  97 NE5       29.98F FOG
PRAIRIE DU CHI DRIZZLE   63  61  95 E6        29.96S
PLATTEVILLE    CLOUDY    64  64  97 SE12      29.96F
$$

WIZ056-057-062-063-064-067-068-290800-
SOUTH CENTRAL WISCONSIN

CITY           SKY/WX    TMP DP  RH WIND       PRES   REMARKS
REEDSBURG      DRIZZLE   57  56  99 E3        30.04S
BARABOO/DELLS  RAIN      56  55  94 E6        30.04S
LONE ROCK      LGT RAIN  62  60  93 E8        30.00F FOG
MINERAL POINT  RAIN      64  63  94 SE8       29.99S
MADISON        RAIN      61  59  93 E6        30.02F FOG
MIDDLETON      CLOUDY    62  62  98 E5        30.03F
WATERTOWN      DRIZZLE   60  60 100 SE6       30.05S
MONROE         LGT RAIN  63  61  94 SE17G24   30.00F
JANESVILLE     RAIN      64  63  94 SE13      30.02F
$$

WIZ051-052-058>065-066-070>072-290800-
SOUTHEAST WISCONSIN

CITY           SKY/WX    TMP DP  RH WIND       PRES   REMARKS
MILWAUKEE      RAIN      63  61  93 E10       30.06F FOG
WAUKESHA       LGT RAIN  59  57  94 E9        30.08S
MILWAUKEE/TIMM RAIN      57  54  88 NE6       30.08F
RACINE         LGT RAIN  64  61  90 SE10      30.08F FOG
BURLINGTON     LGT RAIN  62  61  96 CALM      30.06S
KENOSHA        LGT RAIN  65  63  93 E10       30.06F FOG
FOND DU LAC    RAIN      58  56  93 E7        30.08F
SHEBOYGAN      LGT RAIN  58  56  93 N6        30.10S FOG
WEST BEND      RAIN      55  54  94 CALM      30.09S
JUNEAU         RAIN      58  57  97 NE7       30.07F
$$

LSZ147-162-290800-
LAKE SUPERIOR

STATION/POSITION TIME  TEMP    WIND        PRES    WAVE
                       AIR SEA DIR/SP/G            HT/PER
                 (UTC) (F)     (DEG/KT/KT) (MB)    (FT/S)
W MID LAKE BUOY  0650   58 56  220/  6/  8 1017.2F   1/ 4
DEVILS ISLAND    0700   63     360/  8/ 11 1018.4R
PORT WING        0600   66     210/  7/ 11 1016.9
SAXON HARBOR     0700   64     210/  3/ 16 1017.3R
$$

LMZ867-665-643>646-290800-
LAKE MICHIGAN

STATION/POSITION TIME  TEMP    WIND        PRES    WAVE
                       AIR SEA DIR/SP/G            HT/PER
                 (UTC) (F)     (DEG/KT/KT) (MB)    (FT/S)
CHAMBERS ISLAND  0600   61     210/  6/ 13 1019.6R
S GREEN BAY BUOY 0700   61 62  220/ 10/ 12 1021.1
N MID LAKE BUOY  0650   63 64  240/ 16/ 19 1018.8R   3/ 5
NORTHPORT PIER   0600   63     260/  7/ 16 1019.0R
SISTER BAY       0619   62     260/ 17/ 20   N/A
ALGOMA LAKESHORE 0614          240/  4/  6   N/A
SHEBOYGAN LAKESH 0700   56     350/  9/ 10 1019.5S
PORT WASHINGTON  0640   59      40/  2/  3 1019.3S
ATWATER BUOY     0700   54 48  320/  6/  8 1019.8R
MILWAUKEE LAKESH 0600   56     150/  4/  5   N/A
S MID LAKE BUOY  0650   68 68   80/ 12/ 12 1018.2F
KENOSHA   LAKESH 0700   58     140/  7/ 11 1017.6F
$$

TC  - TEMPERATURE IN CELSIUS
VSB - VISIBILITY IN STATUTE MILES
WCI - WIND CHILL INDEX
HX  - HEAT INDEX




USA.gov is the U.S. government's official web portal to all federal, state and local government web resources and services.